Regional Weather Roundup
Issued by NWS State College, PA

Home | Current Version | Previous Version | Graphics & Text | Print | Product List | Glossary Off
Versions: 1 2 3 4 5 6 7 8 9 10 11 12 13 14 15 16 17 18 19 20 21 22 23 24 25 26 27 28 29 30 31 32 33 34 35 36 37 38 39 40 41 42 43 44 45 46 47 48 49 50

000
ASUS41 KCTP 052210
RWRCTP

REGIONAL WEATHER ROUNDUP
NATIONAL WEATHER SERVICE STATE COLLEGE PA
500 PM EST THU MAR 05 2015

Note: "fair" indicates few or no clouds below 12,000 feet with no
significant weather and/or obstructions to visibility.

* = STATION THAT DOES NOT REPORT PRECIPITATION /E.G. RAIN...SNOW...ETC/
    THUNDER OR FOG.

PAZ002>004-007>009-013>016-020>023-029>032-052300-
WESTERN PENNSYLVANIA

CITY           SKY/WX    TMP DP  RH WIND       PRES   REMARKS
ERIE           SUNNY     12  -1  56 W9        30.39R WCI   0
MEADVILLE      CLOUDY     9  -2  61 N9G16     30.31R WCI  -4
FRANKLIN*      SUNNY     10  -4  52 N7        30.29R WCI   0
NEW CASTLE     FAIR      14  -1  51 NW9       30.35R WCI   2
BEAVER COUNTY  SUNNY     16   0  48 NW7       30.32R WCI   6
BUTLER*        PTSUNNY   14  -2  48 N6        30.31R WCI   5
PITTSBURGH INT CLOUDY    16  -1  47 N13       30.31R WCI   2
PITTSBURGH     CLOUDY    15  -1  49 NW13      30.29R WCI   1
INDIANA*       CLOUDY    16   1  53 N8        30.30R WCI   5
LATROBE        CLOUDY    16   7  67 NW7       30.32R WCI   6
WASHINGTON CO* PTSUNNY   16   1  53 NW7       30.33R WCI   6
$$

PAZ004>006-010>012-017>019-024>028-033>037-041-042-045-046-049>053-052300-
CENTRAL PENNSYLVANIA

CITY           SKY/WX    TMP DP  RH WIND       PRES   REMARKS
BRADFORD       MOSUNNY   11  -6  46 W9G18     30.16R WCI  -2
DUBOIS         CLOUDY    13  -3  49 NW12      30.20R WCI  -1
CLEARFIELD     CLOUDY    17  -2  43 NW9       30.21R WCI   6
JOHNSTOWN      CLOUDY    11   2  67 W15       30.15R WCI  -5
ALTOONA        CLOUDY    16   3  56 NW13      30.21R WCI   2
STATE COLLEGE  CLOUDY    19  -2  38 NW8       30.23R WCI   9
WILLIAMSPORT   CLOUDY    21  -2  36 N9        30.25R WCI  11
SELINSGROVE    CLOUDY    22   4  46 N8        30.26R WCI  12
FT INDIANTOWN  CLOUDY    20   8  59 VRB2      30.24R
CAPITAL CITY   CLOUDY    21  13  71 CALM      30.28R
HARRISBURG     CLOUDY    21  14  74 W3        30.26R
YORK           LGT SNOW  20  15  81 N5        30.25R WCI  13
$$

PAZ038>040-043-044-047-048-054-055-060>062-067>071-052300-
EASTERN PENNSYLVANIA

CITY           SKY/WX    TMP DP  RH WIND       PRES   REMARKS
SCRANTON       CLOUDY    17   2  51 N13       30.19R WCI   4
MOUNT POCONO   CLOUDY    13   1  59 NW12      30.08R WCI  -1
ALLENTOWN      CLOUDY    20  11  68 W6        30.23R WCI  12
QUAKERTOWN*    CLOUDY    18  14  86 N7        30.22R WCI   8
READING        CLOUDY    19  15  84 CALM      30.24R
LANCASTER      LGT SNOW  19  15  84 NW6       30.25R FOG     WCI  11
COATESVILLE    LGT SNOW  19  18  93 N7        30.19F WCI  10
POTTSTOWN      LGT SNOW  18  15  88 N9        30.24F FOG     WCI   7
BLUE BELL      CLOUDY    21  18  86 CALM      30.21S VSB 3/4
DOYLESTOWN     LGT SNOW  18  16  92 N6        30.19F FOG     WCI  10
WILLOW GROVE   NOT AVBL
NORTH PHILA    LGT SNOW  22  17  81 NW9       30.23F VSB 1   WCI  12
PHILADELPHIA   SNOW      20  16  84 N13       30.25R VSB 1/2 WCI   7
$$


USA.gov is the U.S. government's official web portal to all federal, state and local government web resources and services.